Weather History for Mansfield, OH

Change the Weather History Date:

Friday, June 14, 2013

  Actual Average Record
Temperature  
Mean Temperature 64 °F 68 °F  
Max Temperature 72 °F 78 °F 92 °F (1967)
Min Temperature 55 °F 57 °F 37 °F (1959)
Degree Days  
Heating Degree Days 1 2  
Month to date heating degree days 38 38  
Since 1 June heating degree days 38 38  
Since 1 July heating degree days 6020 6255  
Cooling Degree Days 0 4  
Month to date cooling degree days 38 47  
Year to date cooling degree days 133 93  
Since 1 June cooling degree days 38 47  
Growing Degree Days 13 (Base 50)    
Moisture  
Dew Point 55 °F    
Average Humidity 79    
Maximum Humidity 100    
Minimum Humidity 57    
Precipitation  
Precipitation 0.00 in 0.16 in 1.33 in (1961)
Month to date precipitation 4.91 2.28  
Year to date precipitation 18.78 19.61  
Snow  
Snow 0.00 in 0.00 in - ()
Month to date snowfall 0.0 0.0  
Since 1 June snowfall 0.0 0.0  
Since 1 July snowfall 39.4 48.3  
Snow Depth 0.00 in    
Sea Level Pressure  
Sea Level Pressure 30.02 in    
Wind  
Wind Speed 7 mph (NNW)    
Max Wind Speed 20 mph    
Max Gust Speed 24 mph    
Visibility 10 miles    
Events      
T = Trace of Precipitation, MM = Missing Value Source: NWS Daily Summary

Daily Weather History Graph

Daily Weather History Graph

Search for Another Location

Airport:

Trip Planner

Search our weather history database for the weather conditions in past years. The results will help you decide how hot, cold, wet, or windy it might be!

Date:

Astronomy

Jun. 14, 2013 Rise Set
Actual Time 5:57 AM EDT 9:03 PM EDT
Civil Twilight 5:24 AM EDT 9:36 PM EDT
Nautical Twilight 4:41 AM EDT 10:19 PM EDT
Astronomical Twilight 3:51 AM EDT 11:09 PM EDT
Moon 11:33 AM EDT (6/14) 12:06 AM EDT (6/14)
Length of Visible Light 16h 12m
Length of Day
15h 05m
Waxing Crescent, 30% of the Moon is Illuminated
Jun 14
Waxing Crescent
Jun 16
First Quarter
Jun 23
Full
Jun 30
Last Quarter
Jul 8
New

Hourly Weather History & Observations

Time (EDT) Temp. Dew Point Humidity Pressure Visibility Wind Dir Wind Speed Gust Speed Precip Events Conditions
12:52 AM 57.9 °F 54.0 °F 87% 29.91 in 10.0 mi NNW 5.8 mph - N/A   Clear
1:52 AM 57.0 °F 54.0 °F 89% 29.91 in 10.0 mi Calm Calm - N/A   Clear
2:52 AM 57.9 °F 55.0 °F 90% 29.91 in 10.0 mi WNW 4.6 mph - N/A   Clear
3:52 AM 57.9 °F 55.9 °F 93% 29.91 in 10.0 mi WNW 4.6 mph - N/A   Clear
4:52 AM 55.9 °F 55.0 °F 97% 29.91 in 10.0 mi NW 5.8 mph - N/A   Clear
5:52 AM 55.0 °F 54.0 °F 96% 29.93 in 10.0 mi NNW 5.8 mph - N/A   Clear
6:52 AM 57.9 °F 55.9 °F 93% 29.95 in 10.0 mi NW 5.8 mph - N/A   Clear
7:22 AM 59.0 °F 57.2 °F 94% 29.98 in 10.0 mi NNW 6.9 mph - N/A   Mostly Cloudy
7:52 AM 60.1 °F 57.0 °F 90% 29.98 in 10.0 mi NNW 8.1 mph - N/A   Overcast
8:52 AM 62.1 °F 57.9 °F 86% 30.00 in 10.0 mi NNW 10.4 mph - N/A   Mostly Cloudy
9:22 AM 64.4 °F 57.2 °F 77% 30.02 in 10.0 mi North 11.5 mph - N/A   Mostly Cloudy
9:52 AM 64.9 °F 55.9 °F 73% 30.03 in 10.0 mi NNW 16.1 mph - N/A   Mostly Cloudy
10:06 AM 66.2 °F 57.2 °F 73% 30.04 in 10.0 mi NNW 12.7 mph - N/A   Scattered Clouds
10:24 AM 64.4 °F 55.4 °F 73% 30.04 in 10.0 mi NW 13.8 mph 24.2 mph N/A   Mostly Cloudy
10:33 AM 64.4 °F 55.4 °F 73% 30.04 in 10.0 mi NNW 17.3 mph - N/A   Scattered Clouds
10:52 AM 66.9 °F 55.9 °F 68% 30.02 in 10.0 mi North 16.1 mph 20.7 mph N/A   Clear
11:52 AM 68.0 °F 55.9 °F 65% 30.05 in 10.0 mi NW 17.3 mph 20.7 mph N/A   Mostly Cloudy
12:02 PM 69.8 °F 57.2 °F 64% 30.06 in 10.0 mi NW 12.7 mph - N/A   Mostly Cloudy
12:10 PM 68.0 °F 55.4 °F 64% 30.06 in 10.0 mi NNW 17.3 mph 24.2 mph N/A   Mostly Cloudy
12:18 PM 66.2 °F 55.4 °F 68% 30.06 in 10.0 mi NNW 12.7 mph 24.2 mph N/A   Mostly Cloudy
12:52 PM 68.0 °F 55.9 °F 65% 30.06 in 10.0 mi NNW 11.5 mph - N/A   Mostly Cloudy
1:52 PM 68.0 °F 55.9 °F 65% 30.06 in 10.0 mi NNW 13.8 mph 19.6 mph N/A   Mostly Cloudy
2:52 PM 71.1 °F 57.0 °F 61% 30.04 in 10.0 mi North 9.2 mph - N/A   Scattered Clouds
3:52 PM 70.0 °F 55.9 °F 61% 30.04 in 10.0 mi North 10.4 mph 18.4 mph N/A   Mostly Cloudy
4:52 PM 71.1 °F 55.0 °F 57% 30.04 in 10.0 mi North 8.1 mph - N/A   Scattered Clouds
5:52 PM 71.1 °F 55.0 °F 57% 30.05 in 10.0 mi NNW 10.4 mph - N/A   Clear
6:52 PM 70.0 °F 54.0 °F 57% 30.05 in 10.0 mi North 9.2 mph - N/A   Clear
7:52 PM 68.0 °F 54.0 °F 61% 30.05 in 10.0 mi NNW 6.9 mph - N/A   Clear
8:52 PM 62.1 °F 54.0 °F 75% 30.07 in 10.0 mi NNW 4.6 mph - N/A   Clear
9:52 PM 60.1 °F 54.0 °F 80% 30.08 in 10.0 mi Calm Calm - N/A   Clear
10:52 PM 57.0 °F 54.0 °F 89% 30.09 in 10.0 mi Calm Calm - N/A   Clear
11:52 PM 55.0 °F 53.1 °F 93% 30.09 in 10.0 mi Calm Calm - N/A   Clear